Columbia, MO

4:44 AM CDT on May 23, 2018 (GMT -0500)
Columbia Regional

Weather History for KCOU - October, 2013

Change the Weather History Date:

Friday, October 4, 2013

  Actual Average Record
Temperature  
Mean Temperature 78 °F 60 °F  
Max Temperature 87 °F 71 °F 94 °F (1897)
Min Temperature 68 °F 48 °F 31 °F (1901)
Degree Days  
Heating Degree Days 0 6  
Month to date heating degree days 0 24  
Since 1 July heating degree days 16 92  
Cooling Degree Days 13 1  
Month to date cooling degree days 44 6  
Year to date cooling degree days 1318 1233  
Growing Degree Days 28 (Base 50)    
Moisture  
Dew Point 67 °F    
Average Humidity 74    
Maximum Humidity 97    
Minimum Humidity 51    
Precipitation  
Precipitation 0.00 in 0.12 in 3.22 in (1941)
Month to date precipitation T 0.50  
Year to date precipitation 35.51 34.12  
Snow  
Snow 0.00 in 0.00 in 0.00 in (2015)
Month to date snowfall 0.0 0.0  
Since 1 July snowfall 0.0 0.0  
Since 1 September snowfall 0.0 0.0  
Snow Depth 0.00 in    
Sea Level Pressure  
Sea Level Pressure 29.89 in    
Wind  
Wind Speed 12 mph (SSE)    
Max Wind Speed 21 mph    
Max Gust Speed 24 mph    
Visibility 10 miles    
Events      
T = Trace of Precipitation, MM = Missing Value Source: NWS Daily Summary

Daily Weather History Graph

Daily Weather History Graph

Search for Another Location

Airport or City:

Astronomy

Oct. 04, 2013 Rise Set
Actual Time 7:07 AM CDT 6:46 PM CDT
Civil Twilight 6:41 AM CDT 7:13 PM CDT
Nautical Twilight 6:10 AM CDT 7:43 PM CDT
Astronomical Twilight 5:39 AM CDT 8:14 PM CDT
Moon 6:43 AM CDT (10/4) 6:29 PM CDT (10/4)
Length of Visible Light 12h 31m
Length of Day
11h 38m
Waning Crescent, 0% of the Moon is Illuminated
Oct 4
Waning Crescent
Oct 4
New
Oct 11
First Quarter
Oct 18
Full
Oct 26
Last Quarter

Hourly Weather History & Observations

Time (CDT) Temp. Heat Index Dew Point Humidity Pressure Visibility Wind Dir Wind Speed Gust Speed Precip Events Conditions
12:54 AM 70.0 °F - 68.0 °F 93% 29.88 in 10.0 mi SSE 8.1 mph - N/A   Clear
1:54 AM 69.1 °F - 66.9 °F 93% 29.91 in 8.0 mi East 5.8 mph - N/A   Clear
2:42 AM 69.1 °F - 66.9 °F 93% 29.92 in 8.0 mi ESE 6.9 mph - N/A   Mostly Cloudy
2:49 AM 69.8 °F - 66.2 °F 88% 29.92 in 8.0 mi ESE 6.9 mph - N/A   Scattered Clouds
2:54 AM 69.1 °F - 66.9 °F 93% 29.89 in 8.0 mi SE 6.9 mph - N/A   Scattered Clouds
3:02 AM 70.0 °F - 68.0 °F 93% 29.91 in 8.0 mi ESE 9.2 mph - N/A   Mostly Cloudy
3:54 AM 70.0 °F - 68.0 °F 93% 29.89 in 9.0 mi SE 10.4 mph - N/A   Mostly Cloudy
4:54 AM 70.0 °F - 68.0 °F 93% 29.90 in 9.0 mi SE 9.2 mph - N/A   Overcast
5:12 AM 70.0 °F - 66.9 °F 90% 29.92 in 9.0 mi SE 9.2 mph - N/A   Scattered Clouds
5:54 AM 70.0 °F - 66.9 °F 90% 29.90 in 10.0 mi SSE 10.4 mph - N/A   Clear
6:54 AM 69.1 °F - 66.9 °F 93% 29.92 in 10.0 mi SE 10.4 mph - N/A   Clear
7:54 AM 70.0 °F - 66.9 °F 90% 29.92 in 9.0 mi SSE 11.5 mph - N/A   Clear
8:54 AM 73.0 °F - 68.0 °F 84% 29.93 in 10.0 mi SSE 15.0 mph - N/A   Clear
9:54 AM 75.9 °F - 68.0 °F 76% 29.94 in 10.0 mi South 11.5 mph - N/A   Clear
10:54 AM 81.0 °F 84.1 °F 69.1 °F 67% 29.91 in 10.0 mi South 13.8 mph - N/A   Clear
11:54 AM 82.9 °F 86.5 °F 69.1 °F 63% 29.91 in 10.0 mi South 13.8 mph 20.7 mph N/A   Scattered Clouds
12:32 PM 82.9 °F 86.5 °F 69.1 °F 63% 29.93 in 10.0 mi SSE 15.0 mph - N/A   Mostly Cloudy
12:54 PM 84.0 °F 87.8 °F 69.1 °F 61% 29.89 in 10.0 mi SSW 13.8 mph 20.7 mph N/A   Scattered Clouds
1:54 PM 86.0 °F 89.4 °F 68.0 °F 55% 29.87 in 10.0 mi South 15.0 mph 21.9 mph N/A   Clear
2:54 PM 86.0 °F 88.8 °F 66.9 °F 53% 29.85 in 10.0 mi SSE 18.4 mph 21.9 mph N/A   Clear
3:54 PM 86.0 °F 88.8 °F 66.9 °F 53% 29.85 in 10.0 mi South 17.3 mph - N/A   Clear
4:54 PM 84.9 °F 87.1 °F 66.0 °F 53% 29.84 in 10.0 mi South 12.7 mph - N/A   Clear
5:54 PM 82.9 °F 84.6 °F 64.9 °F 54% 29.85 in 10.0 mi South 11.5 mph - N/A   Clear
6:54 PM 79.0 °F - 64.9 °F 62% 29.86 in 10.0 mi SSE 10.4 mph - N/A   Clear
7:54 PM 78.1 °F - 66.9 °F 68% 29.88 in 10.0 mi SSE 10.4 mph - N/A   Clear
8:54 PM 75.9 °F - 66.9 °F 74% 29.89 in 10.0 mi SE 6.9 mph - N/A   Clear
9:54 PM 75.9 °F - 68.0 °F 76% 29.89 in 10.0 mi SSE 10.4 mph - N/A   Clear
10:54 PM 75.9 °F - 68.0 °F 76% 29.89 in 10.0 mi South 13.8 mph - N/A   Clear
11:54 PM 75.0 °F - 68.0 °F 79% 29.90 in 10.0 mi South 11.5 mph - N/A   Clear